Monatsübersicht für Juni 2018

 
Wetter
Zeitraffer
Tageslänge (hh:mm)
Höchsttemperatur in °C
Uhrzeit
Tiefsttemperatur in °C
Uhrzeit
Luftfeuchte (max., in %)
Uhrzeit
Luftfeuchte (min., in %)
Uhrzeit
Luftdruck (max., in hPa)
Uhrzeit
Luftdruck (min., in hPa)
Uhrzeit
Luftdruck (Ø, in hPa)
Regenrate (max, mm/h)
Uhrzeit
Niederschlag in mm
Verdunstung in mm
Solar in W/m² (Ø)
Solar in W/m² (max.)
UV-Index (max.)
Sonnenscheindauer (hh:mm)
Windrichtung (Ø)
Windstärke (Ø in km/h)
Windstärke (Ø in bft)
Windböe (max., in km/h)
Uhrzeit
Windböe (max., in bft)
Uhrzeit
Taupunkt (max., in °C)
Uhrzeit
Taupunkt (min., in °C)
Uhrzeit
Windchill (min., in °C)
Uhrzeit
Gewitterindex (max.)
Uhrzeit
01
16:35
34.0
14:20 Uhr
19.3
05:15 Uhr

82
23:20 Uhr
31
14:20 Uhr
1017.2
21:10 Uhr

1015.0
18:05 Uhr
1016.4
0,000
00:00 Uhr
0,000
4.572
334
1072
14:10 Uhr
6.3
14:05 Uhr

06:25:00
6,0
1
32,2
18:45 Uhr

5
17.4
09:40 Uhr
14.4
14:20 Uhr
18.9
20:20 Uhr
0
00:00 Uhr
02
16:36
27.1
16:20 Uhr
17.5
03:25 Uhr

94
23:50 Uhr
58
16:15 Uhr
1018.4
22:05 Uhr

1015.8
00:55 Uhr
1016.8
0,000
00:00 Uhr
0,000
3.429
286
864
14:50 Uhr
5.7
12:40 Uhr

04:15:00
6,0
1
30,6
16:30 Uhr

5
19.4
10:40 Uhr
16.2
03:25 Uhr
17.5
03:25 Uhr
0
00:00 Uhr
03
16:38
23.6
16:40 Uhr
16.5
23:50 Uhr

95
01:25 Uhr
70
16:40 Uhr
1020.4
12:15 Uhr

1017.4
20:15 Uhr
1018.8
2,400
02:30 Uhr
0,400
2.032
183
548
12:35 Uhr
4.4
12:30 Uhr

01:45:00
4,6
1
20,9
13:55 Uhr

4
18.5
10:30 Uhr
15.4
23:50 Uhr
16.5
23:50 Uhr
0
00:00 Uhr
04
16:40
28.1
16:35 Uhr
13.2
05:20 Uhr

98
05:40 Uhr
44
16:40 Uhr
1017.4
00:00 Uhr

1011.5
20:30 Uhr
1014.4
0,000
00:00 Uhr
0,000
4.877
395
1129
13:20 Uhr
6.4
13:15 Uhr

11:35:00
5,0
1
27,4
17:05 Uhr

4
17.7
08:35 Uhr
12.7
05:25 Uhr
13.2
05:20 Uhr
0
00:00 Uhr
05
16:42
24.2
14:05 Uhr
13.9
02:55 Uhr

94
02:35 Uhr
31
20:15 Uhr
1017.9
23:50 Uhr

1012.9
00:00 Uhr
1015.0
0,000
00:00 Uhr
0,000
3.099
296
1061
14:00 Uhr
7.1
13:55 Uhr

04:35:00
5,8
1
29,0
21:15 Uhr

4
15.9
14:05 Uhr
3.9
20:15 Uhr
13.9
02:55 Uhr
0
00:00 Uhr
06
16:43
23.1
16:55 Uhr
11.2
01:35 Uhr

75
04:55 Uhr
24
17:45 Uhr
1021.4
10:50 Uhr

1017.9
00:00 Uhr
1020.2
0,000
00:00 Uhr
0,000
6.909
484
894
13:20 Uhr
6.6
12:50 Uhr

14:00:00
11,4
2
38,6
17:35 Uhr

5
7.7
04:00 Uhr
1.1
17:45 Uhr
7.6
05:40 Uhr
0
00:00 Uhr
07
16:45
27.1
17:25 Uhr
11.7
05:15 Uhr

54
05:55 Uhr
22
16:20 Uhr
1021.2
00:05 Uhr

1017.5
18:45 Uhr
1019.8
0,000
00:00 Uhr
0,000
7.239
477
879
13:05 Uhr
6.2
13:05 Uhr

14:05:00
10,1
2
32,2
11:50 Uhr

5
7.4
19:40 Uhr
2.4
00:25 Uhr
9.3
05:05 Uhr
0
00:00 Uhr
08
16:46
32.1
15:05 Uhr
13.6
04:45 Uhr

66
04:45 Uhr
19
14:55 Uhr
1017.9
00:00 Uhr

1013.9
18:20 Uhr
1015.9
0,000
00:00 Uhr
0,000
6.807
477
894
13:20 Uhr
6.4
12:40 Uhr

13:55:00
5,2
1
25,7
10:55 Uhr

4
10.7
09:40 Uhr
4.2
15:10 Uhr
13.6
04:45 Uhr
0
00:00 Uhr
09
16:48
32.5
12:55 Uhr
16.3
05:15 Uhr

69
05:10 Uhr
24
12:55 Uhr
1015.2
09:05 Uhr

1012.8
17:05 Uhr
1014.2
0,000
00:00 Uhr
0,000
6.756
459
870
13:10 Uhr
6.4
13:05 Uhr

12:35:00
6,0
1
25,7
13:15 Uhr

4
15.8
23:35 Uhr
8.5
14:20 Uhr
16.3
05:15 Uhr
0
00:00 Uhr
10
16:49
31.2
14:00 Uhr
16.9
05:15 Uhr

95
22:35 Uhr
38
14:00 Uhr
1013.8
00:00 Uhr

1009.7
14:25 Uhr
1011.7
2,400
18:00 Uhr
1,400
3.988
329
998
12:05 Uhr
6.9
13:00 Uhr

08:05:00
3,5
1
22,5
14:45 Uhr

4
19.6
18:20 Uhr
14.5
04:35 Uhr
16.9
05:15 Uhr
0
00:00 Uhr
11
16:50
25.8
15:55 Uhr
15.1
05:25 Uhr

97
03:45 Uhr
34
17:20 Uhr
1013.9
11:35 Uhr

1010.6
19:55 Uhr
1012.3
0,000
00:00 Uhr
0,000
4.902
398
1019
12:15 Uhr
7.4
12:50 Uhr

09:25:00
5,5
1
30,6
16:15 Uhr

5
17.4
00:00 Uhr
7.6
17:55 Uhr
14.9
04:35 Uhr
0
00:00 Uhr
12
16:51
22.3
15:45 Uhr
11.6
05:30 Uhr

91
04:25 Uhr
43
15:15 Uhr
1012.8
23:15 Uhr

1010.8
01:30 Uhr
1011.8
0,000
00:00 Uhr
0,000
4.343
364
1023
14:25 Uhr
7.5
13:30 Uhr

08:25:00
5,3
1
25,7
10:05 Uhr

4
11.0
00:30 Uhr
8.0
10:35 Uhr
11.6
05:30 Uhr
2
18:45 Uhr
13
16:52
18.1
11:20 Uhr
13.4
05:05 Uhr

79
05:55 Uhr
56
11:20 Uhr
1015.1
19:45 Uhr

1012.0
03:55 Uhr
1013.2
0,000
00:00 Uhr
0,000
2.083
169
864
09:55 Uhr
5.7
11:15 Uhr

00:55:00
5,1
1
25,7
14:05 Uhr

4
10.6
07:35 Uhr
8.8
11:10 Uhr
12.0
23:50 Uhr
2
00:00 Uhr
14
16:52
24.4
16:10 Uhr
12.6
05:15 Uhr

72
06:15 Uhr
32
17:15 Uhr
1016.6
10:05 Uhr

1013.2
19:00 Uhr
1015.1
0,000
00:00 Uhr
0,000
4.902
418
905
12:15 Uhr
6.8
13:10 Uhr

09:45:00
4,3
1
29,0
00:05 Uhr

4
9.5
00:00 Uhr
5.4
17:20 Uhr
11.3
00:30 Uhr
2
00:00 Uhr
15
16:53
24.2
17:25 Uhr
12.3
02:20 Uhr

90
11:05 Uhr
46
18:05 Uhr
1017.7
10:50 Uhr

1014.5
01:45 Uhr
1016.6
2,400
10:50 Uhr
0,200
2.642
226
927
15:10 Uhr
5.9
13:15 Uhr

02:15:00
2,0
0
20,9
10:50 Uhr

4
15.8
11:15 Uhr
7.9
01:10 Uhr
12.3
02:20 Uhr
7
11:15 Uhr


 
Wetter
Zeitraffer
Tageslänge (hh:mm)
Höchsttemperatur in °C
Uhrzeit
Tiefsttemperatur in °C
Uhrzeit
Luftfeuchte (max., in %)
Uhrzeit
Luftfeuchte (min., in %)
Uhrzeit
Luftdruck (max., in hPa)
Uhrzeit
Luftdruck (min., in hPa)
Uhrzeit
Luftdruck (Ø, in hPa)
Regenrate (max, mm/h)
Uhrzeit
Niederschlag in mm
Verdunstung in mm
Solar in W/m² (Ø)
Solar in W/m² (max.)
UV-Index (max.)
Sonnenscheindauer (hh:mm)
Windrichtung (Ø)
Windstärke (Ø in km/h)
Windstärke (Ø in bft)
Windböe (max., in km/h)
Uhrzeit
Windböe (max., in bft)
Uhrzeit
Taupunkt (max., in °C)
Uhrzeit
Taupunkt (min., in °C)
Uhrzeit
Windchill (min., in °C)
Uhrzeit
Gewitterindex (max.)
Uhrzeit
16
16:53
27.5
13:55 Uhr
15.1
05:10 Uhr

85
04:55 Uhr
39
13:55 Uhr
1018.0
01:10 Uhr

1014.0
20:30 Uhr
1016.3
0,000
00:00 Uhr
0,000
3.734
291
967
13:35 Uhr
6.9
13:50 Uhr

04:50:00
3,1
1
19,3
12:25 Uhr

3
14.7
08:40 Uhr
10.9
14:25 Uhr
15.1
05:10 Uhr
7
00:00 Uhr
17
16:54
27.4
16:40 Uhr
14.1
23:50 Uhr

72
04:55 Uhr
36
16:40 Uhr
1017.7
23:45 Uhr

1013.5
05:10 Uhr
1014.9
0,000
00:00 Uhr
0,000
6.096
424
1008
13:30 Uhr
6.7
13:30 Uhr

11:25:00
6,9
1
35,4
19:20 Uhr

5
15.1
11:50 Uhr
7.7
20:50 Uhr
14.1
23:50 Uhr
6
00:00 Uhr
18
16:54
24.2
16:45 Uhr
9.9
05:20 Uhr

89
05:25 Uhr
41
14:45 Uhr
1020.3
09:40 Uhr

1017.8
00:00 Uhr
1019.3
0,000
00:00 Uhr
0,000
3.708
290
971
12:50 Uhr
7.4
12:55 Uhr

05:55:00
3,8
1
30,6
14:55 Uhr

5
12.8
23:00 Uhr
7.4
04:50 Uhr
9.9
05:20 Uhr
6
22:25 Uhr
19
16:55
25.4
14:50 Uhr
15.8
06:00 Uhr

94
06:25 Uhr
48
12:00 Uhr
1023.1
23:40 Uhr

1019.2
04:05 Uhr
1020.8
2,400
05:45 Uhr
0,600
4.013
300
1018
14:55 Uhr
7.6
14:25 Uhr

07:00:00
6,4
1
33,8
05:40 Uhr

5
15.9
08:25 Uhr
12.4
01:15 Uhr
13.8
05:40 Uhr
8
22:25 Uhr
20
16:55
28.2
17:55 Uhr
15.2
03:30 Uhr

87
03:15 Uhr
45
17:45 Uhr
1023.7
05:50 Uhr

1015.9
23:35 Uhr
1020.9
0,000
00:00 Uhr
0,000
3.937
313
746
12:55 Uhr
6.6
12:50 Uhr

08:35:00
2,9
1
24,1
18:05 Uhr

4
15.9
15:50 Uhr
11.4
07:35 Uhr
15.2
03:30 Uhr
9
22:25 Uhr
21
16:55
27.2
11:40 Uhr
10.8
23:50 Uhr

91
15:15 Uhr
47
11:45 Uhr
1016.4
23:30 Uhr

1006.9
12:35 Uhr
1012.5
2,400
12:55 Uhr
1,000
3.607
253
950
11:35 Uhr
6.3
11:30 Uhr

07:35:00
8,9
2
62,8
18:25 Uhr

7
16.1
08:05 Uhr
4.7
19:05 Uhr
6.5
16:05 Uhr
8
00:00 Uhr
22
16:54
20.2
16:05 Uhr
9.3
04:10 Uhr

82
13:05 Uhr
41
15:00 Uhr
1019.2
23:45 Uhr

1015.4
06:40 Uhr
1016.7
4,800
19:10 Uhr
0,800
3.277
260
1158
12:45 Uhr
5.8
12:40 Uhr

03:55:00
9,8
2
49,9
19:05 Uhr

6
10.9
13:05 Uhr
5.8
00:15 Uhr
5.3
05:00 Uhr
2
13:05 Uhr
23
16:54
20.4
14:25 Uhr
11.4
02:40 Uhr

92
23:30 Uhr
47
14:20 Uhr
1019.3
23:15 Uhr

1017.8
15:05 Uhr
1018.8
0,000
00:00 Uhr
0,000
3.150
219
1111
14:20 Uhr
7.0
13:15 Uhr

01:55:00
12,7
2
45,1
15:10 Uhr

6
11.2
21:45 Uhr
6.6
05:15 Uhr
5.7
03:50 Uhr
3
22:25 Uhr
24
16:54
16.8
16:25 Uhr
11.6
05:20 Uhr

96
02:50 Uhr
76
16:20 Uhr
1019.3
00:05 Uhr

1018.1
06:00 Uhr
1018.5
7,200
00:25 Uhr
4,800
1.676
177
559
16:15 Uhr
4.0
13:55 Uhr

01:10:00
8,5
2
32,2
16:10 Uhr

5
13.4
13:55 Uhr
10.6
00:05 Uhr
7.9
09:35 Uhr
5
22:25 Uhr
25
16:53
22.6
14:45 Uhr
12.1
04:55 Uhr

97
06:10 Uhr
57
14:45 Uhr
1022.0
23:25 Uhr

1018.7
03:35 Uhr
1020.4
0,000
00:00 Uhr
0,000
3.124
277
1143
14:20 Uhr
7.8
12:30 Uhr

03:15:00
5,9
1
30,6
18:05 Uhr

5
13.9
14:30 Uhr
11.5
04:45 Uhr
11.2
05:20 Uhr
5
00:00 Uhr
26
16:53
25.2
16:40 Uhr
11.1
04:05 Uhr

98
07:05 Uhr
45
19:35 Uhr
1024.1
12:00 Uhr

1021.9
00:00 Uhr
1023.0
0,000
00:00 Uhr
0,000
3.454
281
951
13:45 Uhr
8.0
13:45 Uhr

06:15:00
6,4
1
30,6
19:55 Uhr

5
15.0
14:30 Uhr
9.6
21:55 Uhr
8.8
06:00 Uhr
6
13:05 Uhr
27
16:52
25.5
13:30 Uhr
12.6
04:25 Uhr

92
03:00 Uhr
38
15:35 Uhr
1026.1
09:50 Uhr

1023.9
02:30 Uhr
1025.0
0,000
00:00 Uhr
0,000
5.105
375
1048
13:20 Uhr
6.9
13:25 Uhr

10:55:00
7,9
2
29,0
11:30 Uhr

4
13.7
08:35 Uhr
9.0
15:20 Uhr
11.8
05:45 Uhr
7
22:25 Uhr
28
16:52
29.1
14:30 Uhr
13.8
05:10 Uhr

91
05:35 Uhr
36
15:10 Uhr
1025.5
00:10 Uhr

1018.8
19:10 Uhr
1021.8
0,000
00:00 Uhr
0,000
5.639
363
975
14:10 Uhr
6.7
12:55 Uhr

10:45:00
9,7
2
38,6
11:40 Uhr

5
14.9
11:05 Uhr
11.3
22:55 Uhr
13.8
05:10 Uhr
6
00:00 Uhr
29
16:51
31.9
14:45 Uhr
14.1
05:30 Uhr

80
05:25 Uhr
23
15:50 Uhr
1019.1
00:00 Uhr

1013.8
16:30 Uhr
1016.4
0,000
00:00 Uhr
0,000
6.325
419
996
12:10 Uhr
7.9
13:00 Uhr

11:55:00
8,5
2
43,5
17:10 Uhr

6
15.2
17:15 Uhr
7.0
15:50 Uhr
13.9
23:45 Uhr
6
17:05 Uhr
30
16:50
23.0
16:50 Uhr
9.8
05:35 Uhr

83
05:10 Uhr
34
18:55 Uhr
1021.3
23:45 Uhr

1017.8
00:00 Uhr
1020.1
0,000
00:00 Uhr
0,000
5.004
350
1015
13:30 Uhr
7.8
13:30 Uhr

10:20:00
8,1
2
32,2
18:05 Uhr

5
8.9
08:00 Uhr
4.6
18:55 Uhr
9.8
05:35 Uhr
0
00:00 Uhr